| time (UTC) | temp F | wind direction | speed MPH | gust MPH | rain 1hr in | rain 24hr in | rain mn in | humidity % | barometer mb |
| 20260904220317 | 86 | 315 | 3.0 | 3.0 | 0.00 | 0.00 | 0.00 | 66 | 1012.7 |
| 20260904215812 | 86 | 273 | 1.0 | 5.0 | 0.00 | 0.00 | 0.00 | 67 | 1012.5 |
| 20260904215307 | 86 | 15 | 3.0 | 5.0 | 0.00 | 0.00 | 0.00 | 67 | 1012.3 |
| 20260904214803 | 86 | 46 | 3.0 | 5.0 | 0.00 | 0.00 | 0.00 | 66 | 1012.5 |
| 20260904214258 | 87 | 240 | 1.0 | 3.0 | 0.00 | 0.00 | 0.00 | 66 | 1012.5 |
| 20260904213756 | 87 | 278 | 1.0 | 5.0 | 0.00 | 0.00 | 0.00 | 66 | 1012.5 |
| 20260904213252 | 86 | 119 | 2.0 | 6.0 | 0.00 | 0.00 | 0.00 | 68 | 1012.4 |
| 20260904212748 | 86 | 332 | 3.0 | 5.0 | 0.00 | 0.00 | 0.00 | 67 | 1012.5 |
| 20260904212248 | 86 | 10 | 3.0 | 3.0 | 0.00 | 0.00 | 0.00 | 69 | 1012.5 |
| 20260904211743 | 86 | 188 | 1.0 | 2.0 | 0.00 | 0.00 | 0.00 | 67 | 1012.6 |
| 20260904211237 | 86 | 73 | 2.0 | 3.0 | 0.00 | 0.00 | 0.00 | 68 | 1012.6 |
| 20260904210733 | 87 | 128 | 1.0 | 2.0 | 0.00 | 0.00 | 0.00 | 67 | 1012.6 |
| 20260904210227 | 86 | 128 | 1.0 | 3.0 | 0.00 | 0.00 | 0.00 | 67 | 1012.7 |
| 20260904205724 | 86 | 278 | 1.0 | 3.0 | 0.00 | 0.00 | 0.00 | 68 | 1012.6 |
| 20260904205220 | 86 | 355 | 3.0 | 5.0 | 0.00 | 0.00 | 0.00 | 69 | 1012.8 |
| 20260904204716 | 86 | 278 | 3.0 | 3.0 | 0.00 | 0.00 | 0.00 | 68 | 1012.5 |
| 20260904204212 | 86 | 160 | 1.0 | 3.0 | 0.00 | 0.00 | 0.00 | 69 | 1012.7 |
| 20260904203707 | 86 | 333 | 4.0 | 6.0 | 0.00 | 0.00 | 0.00 | 68 | 1012.6 |
| 20260904203158 | 87 | 317 | 3.0 | 3.0 | 0.00 | 0.00 | 0.00 | 67 | 1012.5 |
| 20260904202653 | 85 | 172 | 1.0 | 2.0 | 0.00 | 0.00 | 0.00 | 70 | 1012.5 |
| 20260904202150 | 85 | 128 | 3.0 | 6.0 | 0.00 | 0.00 | 0.00 | 71 | 1012.8 |
| 20260904201644 | 85 | 235 | 2.0 | 6.0 | 0.00 | 0.00 | 0.00 | 71 | 1012.6 |
| 20260904201139 | 85 | 290 | 3.0 | 5.0 | 0.00 | 0.00 | 0.00 | 70 | 1012.5 |
| 20260904200638 | 84 | 157 | 2.0 | 2.0 | 0.00 | 0.00 | 0.00 | 71 | 1012.5 |
| 20260904200133 | 84 | 93 | 3.0 | 5.0 | 0.00 | 0.00 | 0.00 | 72 | 1012.7 |
| 20260904195632 | 84 | 1 | 5.0 | 7.0 | 0.00 | 0.00 | 0.00 | 72 | 1012.8 |
| 20260904195126 | 84 | 41 | 3.0 | 5.0 | 0.00 | 0.00 | 0.00 | 72 | 1012.8 |
| 20260904194625 | 85 | 127 | 0.0 | 2.0 | 0.00 | 0.00 | 0.00 | 71 | 1012.6 |
| 20260904194121 | 85 | 69 | 2.0 | 5.0 | 0.00 | 0.00 | 0.00 | 72 | 1012.6 |
| 20260904193615 | 84 | 42 | 4.0 | 5.0 | 0.00 | 0.00 | 0.00 | 73 | 1012.8 |
| 20260904193111 | 84 | 331 | 6.0 | 7.0 | 0.00 | 0.00 | 0.00 | 72 | 1012.8 |
| 20260904192606 | 84 | 30 | 3.0 | 3.0 | 0.00 | 0.00 | 0.00 | 74 | 1012.6 |
| 20260904192102 | 84 | 78 | 3.0 | 3.0 | 0.00 | 0.00 | 0.00 | 74 | 1012.8 |
| 20260904191558 | 83 | 102 | 2.0 | 5.0 | 0.00 | 0.00 | 0.00 | 75 | 1012.6 |
| 20260904191054 | 83 | 80 | 3.0 | 3.0 | 0.00 | 0.00 | 0.00 | 74 | 1012.9 |
| 20260904190549 | 83 | 169 | 1.0 | 5.0 | 0.00 | 0.00 | 0.00 | 75 | 1012.9 |
| 20260904190046 | 83 | 52 | 4.0 | 6.0 | 0.00 | 0.00 | 0.00 | 75 | 1012.8 |
| 20260904185542 | 82 | 199 | 1.0 | 3.0 | 0.00 | 0.00 | 0.00 | 77 | 1012.9 |
| 20260904185036 | 82 | 290 | 0.0 | 3.0 | 0.00 | 0.00 | 0.00 | 77 | 1012.9 |
| 20260904184531 | 81 | 326 | 4.0 | 6.0 | 0.00 | 0.00 | 0.00 | 78 | 1012.9 |
| 20260904184026 | 81 | 101 | 2.0 | 3.0 | 0.00 | 0.00 | 0.00 | 78 | 1012.9 |
| 20260904183521 | 81 | 64 | 2.0 | 5.0 | 0.00 | 0.00 | 0.00 | 78 | 1013.1 |
| 20260904183016 | 81 | 349 | 2.0 | 7.0 | 0.00 | 0.00 | 0.00 | 79 | 1013.0 |
| 20260904182512 | 81 | 330 | 3.0 | 7.0 | 0.00 | 0.00 | 0.00 | 78 | 1013.0 |
| 20260904182012 | 81 | 316 | 4.0 | 8.0 | 0.00 | 0.00 | 0.00 | 79 | 1012.9 |
| 20260904181508 | 82 | 63 | 4.0 | 5.0 | 0.00 | 0.00 | 0.00 | 78 | 1012.7 |
| 20260904181002 | 82 | 80 | 3.0 | 6.0 | 0.00 | 0.00 | 0.00 | 77 | 1012.7 |
| 20260904180502 | 83 | 100 | 3.0 | 7.0 | 0.00 | 0.00 | 0.00 | 77 | 1012.9 |
| 20260904175956 | 83 | 59 | 3.0 | 5.0 | 0.00 | 0.00 | 0.00 | 77 | 1012.8 |
| 20260904175456 | 82 | 66 | 2.0 | 3.0 | 0.00 | 0.00 | 0.00 | 77 | 1012.7 |
| 20260904174950 | 82 | 38 | 4.0 | 6.0 | 0.00 | 0.00 | 0.00 | 78 | 1012.6 |
| 20260904174445 | 82 | 16 | 4.0 | 6.0 | 0.00 | 0.00 | 0.00 | 77 | 1012.6 |
| 20260904173941 | 82 | 41 | 3.0 | 5.0 | 0.00 | 0.00 | 0.00 | 78 | 1012.7 |
| 20260904173442 | 82 | 283 | 5.0 | 8.0 | 0.00 | 0.00 | 0.00 | 77 | 1012.6 |
| 20260904172937 | 82 | 188 | 0.0 | 5.0 | 0.00 | 0.00 | 0.00 | 78 | 1012.4 |
| 20260904172432 | 82 | 14 | 4.0 | 6.0 | 0.00 | 0.00 | 0.00 | 78 | 1012.3 |
| 20260904171927 | 82 | 236 | 3.0 | 5.0 | 0.00 | 0.00 | 0.00 | 79 | 1012.4 |
| 20260904171422 | 82 | 30 | 3.0 | 5.0 | 0.00 | 0.00 | 0.00 | 79 | 1012.4 |
| 20260904170918 | 82 | 351 | 7.0 | 8.0 | 0.00 | 0.00 | 0.00 | 79 | 1012.2 |
| 20260904170413 | 82 | 331 | 4.0 | 6.0 | 0.00 | 0.00 | 0.00 | 79 | 1012.5 |
| 20260904165908 | 82 | 351 | 3.0 | 6.0 | 0.00 | 0.00 | 0.00 | 79 | 1012.2 |
| 20260904165408 | 82 | 296 | 3.0 | 6.0 | 0.00 | 0.00 | 0.00 | 79 | 1012.3 |
| 20260904164907 | 83 | 54 | 3.0 | 7.0 | 0.00 | 0.00 | 0.00 | 78 | 1012.3 |
| 20260904164406 | 83 | 241 | 2.0 | 5.0 | 0.00 | 0.00 | 0.00 | 78 | 1012.4 |
| 20260904163903 | 84 | 18 | 3.0 | 6.0 | 0.00 | 0.00 | 0.00 | 77 | 1012.0 |
| 20260904163403 | 84 | 339 | 2.0 | 6.0 | 0.00 | 0.00 | 0.00 | 77 | 1012.0 |
| 20260904162902 | 84 | 10 | 5.0 | 6.0 | 0.00 | 0.00 | 0.00 | 77 | 1012.1 |
| 20260904162358 | 85 | 340 | 4.0 | 6.0 | 0.00 | 0.00 | 0.00 | 75 | 1012.1 |
| 20260904161853 | 86 | 3 | 3.0 | 7.0 | 0.00 | 0.00 | 0.00 | 74 | 1011.9 |
| 20260904161348 | 87 | 91 | 1.0 | 3.0 | 0.00 | 0.00 | 0.00 | 73 | 1011.9 |
| 20260904160844 | 87 | 45 | 2.0 | 3.0 | 0.00 | 0.00 | 0.00 | 72 | 1012.0 |
| 20260904160339 | 86 | 199 | 1.0 | 2.0 | 0.00 | 0.00 | 0.00 | 72 | 1011.7 |
| 20260904155834 | 86 | 8 | 3.0 | 5.0 | 0.00 | 0.00 | 0.00 | 72 | 1011.8 |
| 20260904155328 | 85 | 154 | 0.0 | 2.0 | 0.00 | 0.00 | 0.00 | 74 | 1011.8 |
| 20260904154827 | 85 | 158 | 1.0 | 2.0 | 0.00 | 0.00 | 0.00 | 75 | 1011.7 |
| 20260904154321 | 84 | 110 | 0.0 | 2.0 | 0.00 | 0.00 | 0.00 | 77 | 1011.8 |
| 20260904153817 | 84 | 112 | 2.0 | 2.0 | 0.00 | 0.00 | 0.00 | 76 | 1011.6 |
| 20260904153312 | 85 | 181 | 1.0 | 2.0 | 0.00 | 0.00 | 0.00 | 75 | 1011.5 |
| 20260904152809 | 85 | 190 | 0.0 | 1.0 | 0.00 | 0.00 | 0.00 | 74 | 1011.6 |
| 20260904152306 | 84 | 197 | 1.0 | 2.0 | 0.00 | 0.00 | 0.00 | 75 | 1011.4 |
| 20260904151758 | 85 | 220 | 2.0 | 3.0 | 0.00 | 0.00 | 0.00 | 75 | 1011.4 |
| 20260904151257 | 85 | 173 | 0.0 | 1.0 | 0.00 | 0.00 | 0.00 | 74 | 1011.4 |
| 20260904150754 | 85 | 195 | 0.0 | 1.0 | 0.00 | 0.00 | 0.00 | 74 | 1011.3 |
| 20260904150249 | 85 | 196 | 2.0 | 2.0 | 0.00 | 0.00 | 0.00 | 74 | 1011.2 |
| 20260904145746 | 85 | 183 | 1.0 | 1.0 | 0.00 | 0.00 | 0.00 | 74 | 1011.3 |
| 20260904145242 | 83 | 200 | 0.0 | 3.0 | 0.00 | 0.00 | 0.00 | 78 | 1011.2 |
| 20260904144738 | 84 | 170 | 0.0 | 1.0 | 0.00 | 0.00 | 0.00 | 76 | 1011.2 |
| 20260904144234 | 82 | 195 | 1.0 | 1.0 | 0.00 | 0.00 | 0.00 | 79 | 1011.0 |
| 20260904143729 | 82 | 195 | 2.0 | 2.0 | 0.00 | 0.00 | 0.00 | 79 | 1011.3 |
| 20260904143226 | 82 | 185 | 0.0 | 2.0 | 0.00 | 0.00 | 0.00 | 79 | 1011.4 |
| 20260904142722 | 82 | 194 | 1.0 | 2.0 | 0.00 | 0.00 | 0.00 | 79 | 1011.3 |
| 20260904142218 | 81 | 182 | 0.0 | 1.0 | 0.00 | 0.00 | 0.00 | 81 | 1011.2 |
| 20260904141717 | 81 | 240 | 1.0 | 2.0 | 0.00 | 0.00 | 0.00 | 80 | 1011.2 |
| 20260904141213 | 80 | 184 | 1.0 | 1.0 | 0.00 | 0.00 | 0.00 | 83 | 1011.1 |
| 20260904140708 | 80 | 196 | 1.0 | 1.0 | 0.00 | 0.00 | 0.00 | 83 | 1011.2 |
| 20260904140203 | 80 | 211 | 3.0 | 3.0 | 0.00 | 0.00 | 0.00 | 82 | 1011.0 |
| 20260904135702 | 80 | 186 | 0.0 | 0.0 | 0.00 | 0.00 | 0.00 | 82 | 1011.2 |
| 20260904135158 | 79 | 187 | 0.0 | 0.0 | 0.00 | 0.00 | 0.00 | 84 | 1011.2 |
| 20260904134653 | 78 | 188 | 0.0 | 0.0 | 0.00 | 0.00 | 0.00 | 86 | 1011.4 |
| 20260904134152 | 78 | 188 | 0.0 | 0.0 | 0.00 | 0.00 | 0.00 | 87 | 1011.4 |
| 20260904133648 | 77 | 189 | 0.0 | 0.0 | 0.00 | 0.00 | 0.00 | 89 | 1011.6 |
| 20260904133144 | 76 | 189 | 0.0 | 0.0 | 0.00 | 0.00 | 0.00 | 91 | 1011.3 |
| 20260904132643 | 76 | 189 | 0.0 | 0.0 | 0.00 | 0.00 | 0.00 | 93 | 1011.4 |
| 20260904132138 | 76 | 189 | 0.0 | 0.0 | 0.00 | 0.00 | 0.00 | 94 | 1011.2 |
| 20260904131637 | 75 | 188 | 0.0 | 0.0 | 0.00 | 0.00 | 0.00 | 95 | 1011.0 |
| 20260904131133 | 74 | 187 | 0.0 | 0.0 | 0.00 | 0.00 | 0.00 | 96 | 1011.0 |
| 20260904130632 | 74 | 191 | 0.0 | 0.0 | 0.00 | 0.00 | 0.00 | 97 | 1011.0 |
| 20260904130127 | 74 | 189 | 0.0 | 0.0 | 0.00 | 0.00 | 0.00 | 97 | 1011.1 |
| 20260904125624 | 74 | 198 | 0.0 | 0.0 | 0.00 | 0.00 | 0.00 | 97 | 1010.9 |
| 20260904125119 | 73 | 198 | 0.0 | 0.0 | 0.00 | 0.00 | 0.00 | 97 | 1010.9 |
| 20260904124614 | 73 | 197 | 0.0 | 0.0 | 0.00 | 0.00 | 0.00 | 97 | 1010.8 |
| 20260904124109 | 72 | 198 | 0.0 | 0.0 | 0.00 | 0.00 | 0.00 | 97 | 1010.9 |
| 20260904123604 | 71 | 198 | 0.0 | 0.0 | 0.00 | 0.00 | 0.00 | 97 | 1010.9 |
| 20260904123100 | 71 | 198 | 0.0 | 0.0 | 0.00 | 0.00 | 0.00 | 97 | 1010.7 |
| 20260904122600 | 71 | 207 | 0.0 | 0.0 | 0.00 | 0.00 | 0.00 | 97 | 1010.6 |
| 20260904122055 | 71 | 243 | 0.0 | 0.0 | 0.00 | 0.00 | 0.00 | 97 | 1010.6 |
| 20260904121550 | 71 | 202 | 0.0 | 0.0 | 0.00 | 0.00 | 0.00 | 97 | 1010.7 |
| 20260904121046 | 71 | 207 | 0.0 | 0.0 | 0.00 | 0.00 | 0.00 | 97 | 1010.3 |
| 20260904120542 | 71 | 241 | 0.0 | 0.0 | 0.00 | 0.00 | 0.00 | 97 | 1010.5 |
| 20260904120037 | 71 | 203 | 0.0 | 0.0 | 0.00 | 0.00 | 0.00 | 97 | 1010.6 |
| 20260904115532 | 71 | 213 | 0.0 | 0.0 | 0.00 | 0.00 | 0.00 | 97 | 1010.4 |
| 20260904115027 | 71 | 240 | 0.0 | 0.0 | 0.00 | 0.00 | 0.00 | 97 | 1010.5 |
| 20260904114522 | 71 | 209 | 0.0 | 0.0 | 0.00 | 0.00 | 0.00 | 97 | 1010.2 |
| 20260904114022 | 71 | 214 | 0.0 | 0.0 | 0.00 | 0.00 | 0.00 | 97 | 1010.4 |
| 20260904113516 | 71 | 200 | 0.0 | 0.0 | 0.00 | 0.00 | 0.00 | 97 | 1010.2 |
| 20260904113016 | 71 | 202 | 0.0 | 0.0 | 0.00 | 0.00 | 0.00 | 97 | 1010.3 |
| 20260904112511 | 71 | 179 | 0.0 | 0.0 | 0.00 | 0.00 | 0.00 | 97 | 1010.4 |
| 20260904112007 | 71 | 181 | 0.0 | 0.0 | 0.00 | 0.00 | 0.00 | 96 | 1010.3 |
| 20260904111503 | 71 | 179 | 0.0 | 0.0 | 0.00 | 0.00 | 0.00 | 96 | 1010.1 |
| 20260904110958 | 71 | 188 | 0.0 | 0.0 | 0.00 | 0.00 | 0.00 | 96 | 1010.1 |
| 20260904110457 | 71 | 189 | 0.0 | 0.0 | 0.00 | 0.00 | 0.00 | 96 | 1010.2 |
| 20260904105953 | 71 | 189 | 0.0 | 0.0 | 0.00 | 0.00 | 0.00 | 96 | 1010.2 |
| 20260904105452 | 72 | 189 | 0.0 | 0.0 | 0.00 | 0.00 | 0.00 | 96 | 1010.0 |
| 20260904104948 | 72 | 187 | 0.0 | 0.0 | 0.00 | 0.00 | 0.00 | 96 | 1010.2 |
| 20260904104442 | 72 | 174 | 0.0 | 0.0 | 0.00 | 0.00 | 0.00 | 96 | 1010.1 |
| 20260904103939 | 72 | 174 | 0.0 | 0.0 | 0.00 | 0.00 | 0.00 | 96 | 1010.1 |
| 20260904103434 | 72 | 174 | 0.0 | 0.0 | 0.00 | 0.00 | 0.00 | 96 | 1010.2 |
| 20260904102930 | 72 | 166 | 0.0 | 0.0 | 0.00 | 0.00 | 0.00 | 96 | 1010.3 |
| 20260904102426 | 72 | 174 | 0.0 | 0.0 | 0.00 | 0.00 | 0.00 | 96 | 1010.3 |
| 20260904101921 | 72 | 170 | 0.0 | 0.0 | 0.00 | 0.00 | 0.00 | 96 | 1010.2 |
| 20260904101418 | 72 | 180 | 0.0 | 0.0 | 0.00 | 0.00 | 0.00 | 96 | 1010.3 |
| 20260904100913 | 72 | 180 | 0.0 | 0.0 | 0.00 | 0.00 | 0.00 | 96 | 1010.0 |
| 20260904100408 | 72 | 180 | 0.0 | 0.0 | 0.00 | 0.00 | 0.00 | 96 | 1010.0 |
| 20260904095903 | 72 | 173 | 0.0 | 0.0 | 0.00 | 0.00 | 0.00 | 95 | 1010.2 |
| 20260904095357 | 72 | 184 | 0.0 | 0.0 | 0.00 | 0.00 | 0.00 | 95 | 1010.0 |
| 20260904094853 | 72 | 189 | 0.0 | 0.0 | 0.00 | 0.00 | 0.00 | 95 | 1009.9 |
| 20260904094348 | 72 | 189 | 0.0 | 0.0 | 0.00 | 0.00 | 0.00 | 95 | 1010.0 |
| 20260904093844 | 72 | 189 | 0.0 | 0.0 | 0.00 | 0.00 | 0.00 | 95 | 1009.9 |
| 20260904093344 | 72 | 189 | 0.0 | 0.0 | 0.00 | 0.00 | 0.00 | 95 | 1009.9 |
| 20260904092839 | 73 | 189 | 0.0 | 0.0 | 0.00 | 0.00 | 0.00 | 95 | 1009.9 |
| 20260904092336 | 72 | 189 | 0.0 | 0.0 | 0.00 | 0.00 | 0.00 | 95 | 1009.7 |
| 20260904091832 | 72 | 189 | 0.0 | 0.0 | 0.00 | 0.00 | 0.00 | 95 | 1009.8 |
| 20260904091327 | 73 | 189 | 0.0 | 0.0 | 0.00 | 0.00 | 0.00 | 95 | 1009.8 |
| 20260904090822 | 73 | 189 | 0.0 | 0.0 | 0.00 | 0.00 | 0.00 | 95 | 1009.4 |
| 20260904090318 | 73 | 189 | 0.0 | 0.0 | 0.00 | 0.00 | 0.00 | 95 | 1009.5 |
| 20260904085813 | 73 | 189 | 0.0 | 0.0 | 0.00 | 0.00 | 0.00 | 95 | 1009.4 |
| 20260904085308 | 73 | 189 | 0.0 | 0.0 | 0.00 | 0.00 | 0.00 | 94 | 1009.7 |
| 20260904084802 | 73 | 189 | 0.0 | 0.0 | 0.00 | 0.00 | 0.00 | 94 | 1009.5 |
| 20260904084258 | 73 | 189 | 0.0 | 0.0 | 0.00 | 0.00 | 0.00 | 94 | 1009.4 |
| 20260904083754 | 73 | 189 | 0.0 | 0.0 | 0.00 | 0.00 | 0.00 | 94 | 1009.4 |
| 20260904083251 | 73 | 188 | 0.0 | 0.0 | 0.00 | 0.00 | 0.00 | 94 | 1009.4 |
| 20260904082745 | 73 | 188 | 0.0 | 0.0 | 0.00 | 0.00 | 0.00 | 94 | 1009.5 |
| 20260904082240 | 73 | 188 | 0.0 | 0.0 | 0.00 | 0.00 | 0.00 | 94 | 1009.5 |
| 20260904081735 | 74 | 188 | 0.0 | 0.0 | 0.00 | 0.00 | 0.00 | 94 | 1009.4 |
| 20260904081231 | 74 | 179 | 0.0 | 0.0 | 0.00 | 0.00 | 0.00 | 94 | 1009.3 |
| 20260904080726 | 74 | 196 | 0.0 | 0.0 | 0.00 | 0.00 | 0.00 | 93 | 1009.4 |
| 20260904080222 | 74 | 190 | 0.0 | 0.0 | 0.00 | 0.00 | 0.00 | 93 | 1009.3 |
| 20260904075718 | 74 | 189 | 0.0 | 0.0 | 0.00 | 0.00 | 0.00 | 93 | 1009.4 |
| 20260904075213 | 74 | 184 | 0.0 | 0.0 | 0.00 | 0.00 | 0.00 | 93 | 1009.4 |
| 20260904074712 | 74 | 184 | 0.0 | 0.0 | 0.00 | 0.00 | 0.00 | 93 | 1009.5 |
| 20260904074207 | 74 | 184 | 0.0 | 0.0 | 0.00 | 0.00 | 0.00 | 92 | 1009.3 |
| 20260904073703 | 74 | 184 | 0.0 | 0.0 | 0.00 | 0.00 | 0.00 | 92 | 1009.4 |
| 20260904073158 | 75 | 184 | 0.0 | 0.0 | 0.00 | 0.00 | 0.00 | 92 | 1009.5 |
| 20260904072653 | 75 | 184 | 0.0 | 0.0 | 0.00 | 0.00 | 0.00 | 92 | 1009.4 |
| 20260904072148 | 75 | 184 | 0.0 | 0.0 | 0.00 | 0.00 | 0.00 | 92 | 1009.3 |
| 20260904071643 | 75 | 184 | 0.0 | 0.0 | 0.00 | 0.00 | 0.00 | 92 | 1009.5 |
| 20260904071138 | 75 | 185 | 0.0 | 0.0 | 0.00 | 0.00 | 0.00 | 92 | 1009.5 |
| 20260904070637 | 75 | 185 | 0.0 | 0.0 | 0.00 | 0.00 | 0.00 | 92 | 1009.4 |
| 20260904070132 | 75 | 185 | 0.0 | 0.0 | 0.00 | 0.00 | 0.00 | 91 | 1009.5 |
| 20260904065632 | 75 | 185 | 0.0 | 0.0 | 0.00 | 0.00 | 0.00 | 91 | 1009.4 |
| 20260904065130 | 75 | 185 | 0.0 | 0.0 | 0.00 | 0.00 | 0.00 | 91 | 1009.7 |
| 20260904064624 | 75 | 185 | 0.0 | 0.0 | 0.00 | 0.00 | 0.00 | 91 | 1009.7 |
| 20260904064119 | 75 | 185 | 0.0 | 0.0 | 0.00 | 0.00 | 0.00 | 91 | 1009.8 |
| 20260904063615 | 75 | 185 | 0.0 | 0.0 | 0.00 | 0.00 | 0.00 | 91 | 1009.5 |
| 20260904063110 | 75 | 180 | 0.0 | 0.0 | 0.00 | 0.00 | 0.00 | 91 | 1009.4 |
| 20260904062607 | 75 | 180 | 0.0 | 0.0 | 0.00 | 0.00 | 0.00 | 90 | 1009.5 |
| 20260904062102 | 75 | 180 | 0.0 | 0.0 | 0.00 | 0.00 | 0.00 | 90 | 1009.4 |
| 20260904061557 | 75 | 180 | 0.0 | 0.0 | 0.00 | 0.00 | 0.00 | 90 | 1009.8 |
| 20260904061054 | 75 | 180 | 0.0 | 0.0 | 0.00 | 0.00 | 0.00 | 89 | 1009.4 |
| 20260904060550 | 76 | 180 | 0.0 | 0.0 | 0.00 | 0.00 | 0.00 | 89 | 1009.5 |
| 20260904060046 | 76 | 180 | 0.0 | 0.0 | 0.00 | 0.00 | 0.00 | 89 | 1009.7 |
| 20260904055540 | 76 | 180 | 0.0 | 0.0 | 0.00 | 0.00 | 0.00 | 89 | 1009.5 |
| 20260904055036 | 76 | 177 | 0.0 | 0.0 | 0.00 | 0.00 | 0.00 | 88 | 1009.5 |
| 20260904054531 | 76 | 189 | 0.0 | 0.0 | 0.00 | 0.00 | 0.00 | 88 | 1009.8 |
| 20260904054027 | 76 | 181 | 0.0 | 0.0 | 0.00 | 0.00 | 0.00 | 88 | 1009.5 |
| 20260904053526 | 77 | 187 | 0.0 | 0.0 | 0.00 | 0.00 | 0.00 | 87 | 1009.4 |
| 20260904053022 | 77 | 185 | 0.0 | 0.0 | 0.00 | 0.00 | 0.00 | 87 | 1009.5 |
| 20260904052518 | 77 | 185 | 0.0 | 0.0 | 0.00 | 0.00 | 0.00 | 86 | 1009.5 |
| 20260904052014 | 77 | 185 | 0.0 | 0.0 | 0.00 | 0.00 | 0.00 | 86 | 1009.4 |
| 20260904051511 | 77 | 185 | 0.0 | 0.0 | 0.00 | 0.00 | 0.00 | 86 | 1009.5 |
| 20260904051009 | 78 | 184 | 0.0 | 0.0 | 0.00 | 0.00 | 0.00 | 85 | 1009.5 |
| 20260904050506 | 78 | 190 | 0.0 | 0.0 | 0.00 | 0.00 | 0.00 | 85 | 1009.5 |
| 20260904050001 | 78 | 190 | 0.0 | 0.0 | 0.00 | 0.10 | 0.10 | 84 | 1009.5 |
| 20260904045456 | 78 | 177 | 0.0 | 1.0 | 0.00 | 0.10 | 0.10 | 84 | 1009.4 |
| 20260904044950 | 78 | 177 | 0.0 | 0.0 | 0.00 | 0.10 | 0.10 | 84 | 1009.4 |
| 20260904044447 | 78 | 192 | 0.0 | 0.0 | 0.00 | 0.10 | 0.10 | 84 | 1009.4 |
| 20260904043943 | 78 | 193 | 0.0 | 0.0 | 0.00 | 0.10 | 0.10 | 83 | 1009.2 |
| 20260904043439 | 78 | 188 | 1.0 | 2.0 | 0.00 | 0.10 | 0.10 | 83 | 1009.4 |
| 20260904042934 | 78 | 188 | 0.0 | 0.0 | 0.00 | 0.10 | 0.10 | 83 | 1009.2 |
| 20260904042431 | 79 | 186 | 0.0 | 0.0 | 0.00 | 0.10 | 0.10 | 83 | 1009.2 |
| 20260904041925 | 79 | 207 | 0.0 | 1.0 | 0.00 | 0.10 | 0.10 | 82 | 1009.4 |
| 20260904041421 | 79 | 195 | 0.0 | 0.0 | 0.00 | 0.10 | 0.10 | 82 | 1009.2 |
| 20260904040912 | 79 | 196 | 0.0 | 1.0 | 0.00 | 0.10 | 0.10 | 82 | 1009.2 |
| 20260904040407 | 79 | 181 | 0.0 | 1.0 | 0.00 | 0.10 | 0.10 | 82 | 1009.4 |
| 20260904035903 | 79 | 165 | 2.0 | 2.0 | 0.00 | 0.10 | 0.10 | 82 | 1009.2 |
| 20260904035358 | 79 | 195 | 0.0 | 1.0 | 0.00 | 0.10 | 0.10 | 82 | 1009.3 |
| 20260904034858 | 79 | 180 | 0.0 | 0.0 | 0.00 | 0.10 | 0.10 | 82 | 1009.5 |
| 20260904034353 | 79 | 167 | 0.0 | 1.0 | 0.00 | 0.10 | 0.10 | 81 | 1009.3 |
| 20260904033848 | 80 | 197 | 0.0 | 2.0 | 0.00 | 0.10 | 0.10 | 81 | 1009.4 |
| 20260904033345 | 80 | 180 | 0.0 | 2.0 | 0.00 | 0.10 | 0.10 | 80 | 1009.1 |
| 20260904032841 | 80 | 191 | 0.0 | 1.0 | 0.00 | 0.10 | 0.10 | 80 | 1009.4 |
| 20260904032340 | 80 | 170 | 0.0 | 1.0 | 0.00 | 0.10 | 0.10 | 80 | 1009.3 |
| 20260904031834 | 80 | 188 | 0.0 | 0.0 | 0.00 | 0.10 | 0.10 | 80 | 1009.4 |
| 20260904031330 | 80 | 175 | 0.0 | 0.0 | 0.00 | 0.10 | 0.10 | 80 | 1009.4 |
| 20260904030826 | 80 | 181 | 1.0 | 3.0 | 0.00 | 0.10 | 0.10 | 79 | 1009.7 |
| 20260904030321 | 80 | 188 | 0.0 | 1.0 | 0.00 | 0.10 | 0.10 | 79 | 1009.4 |
| 20260904025817 | 80 | 192 | 0.0 | 1.0 | 0.00 | 0.10 | 0.10 | 79 | 1009.5 |
| 20260904025312 | 80 | 172 | 0.0 | 0.0 | 0.00 | 0.10 | 0.10 | 79 | 1009.4 |
| 20260904024807 | 80 | 199 | 3.0 | 5.0 | 0.00 | 0.10 | 0.10 | 79 | 1009.3 |
| 20260904024302 | 80 | 187 | 0.0 | 0.0 | 0.00 | 0.10 | 0.10 | 79 | 1009.5 |
| 20260904023759 | 80 | 172 | 1.0 | 1.0 | 0.00 | 0.10 | 0.10 | 79 | 1009.3 |
| 20260904023255 | 80 | 166 | 0.0 | 1.0 | 0.00 | 0.10 | 0.10 | 78 | 1009.3 |
| 20260904022753 | 80 | 164 | 1.0 | 2.0 | 0.00 | 0.10 | 0.10 | 78 | 1009.1 |
| 20260904022251 | 80 | 162 | 0.0 | 0.0 | 0.00 | 0.10 | 0.10 | 78 | 1009.2 |
| 20260904021746 | 81 | 179 | 0.0 | 2.0 | 0.00 | 0.10 | 0.10 | 77 | 1009.4 |
| 20260904021242 | 81 | 162 | 1.0 | 1.0 | 0.00 | 0.10 | 0.10 | 77 | 1009.4 |
| 20260904020737 | 81 | 166 | 1.0 | 2.0 | 0.00 | 0.10 | 0.10 | 76 | 1009.4 |
| 20260904020237 | 81 | 172 | 0.0 | 1.0 | 0.00 | 0.10 | 0.10 | 76 | 1009.4 |
| 20260904015735 | 81 | 190 | 0.0 | 1.0 | 0.00 | 0.10 | 0.10 | 76 | 1009.2 |
| 20260904015231 | 81 | 174 | 0.0 | 1.0 | 0.00 | 0.10 | 0.10 | 76 | 1009.1 |
| 20260904014729 | 81 | 180 | 1.0 | 2.0 | 0.00 | 0.10 | 0.10 | 75 | 1009.2 |
| 20260904014225 | 82 | 177 | 0.0 | 2.0 | 0.00 | 0.10 | 0.10 | 75 | 1009.1 |
| 20260904013721 | 82 | 199 | 1.0 | 1.0 | 0.00 | 0.10 | 0.10 | 75 | 1009.0 |
| 20260904013217 | 82 | 201 | 0.0 | 1.0 | 0.00 | 0.10 | 0.10 | 74 | 1008.9 |
| 20260904012712 | 82 | 201 | 1.0 | 1.0 | 0.00 | 0.10 | 0.10 | 74 | 1009.1 |
| 20260904012211 | 82 | 189 | 2.0 | 6.0 | 0.00 | 0.10 | 0.10 | 73 | 1008.9 |
| 20260904011711 | 82 | 210 | 1.0 | 3.0 | 0.00 | 0.10 | 0.10 | 73 | 1008.8 |
| 20260904011207 | 82 | 163 | 2.0 | 6.0 | 0.00 | 0.10 | 0.10 | 73 | 1008.6 |
| 20260904010701 | 83 | 193 | 1.0 | 2.0 | 0.00 | 0.10 | 0.10 | 73 | 1008.7 |
| 20260904010158 | 83 | 123 | 3.0 | 6.0 | 0.00 | 0.10 | 0.10 | 72 | 1008.8 |
| 20260904005653 | 83 | 167 | 1.0 | 3.0 | 0.00 | 0.10 | 0.10 | 72 | 1008.7 |
| 20260904005149 | 83 | 193 | 0.0 | 2.0 | 0.00 | 0.10 | 0.10 | 72 | 1008.7 |
| 20260904004643 | 83 | 171 | 1.0 | 2.0 | 0.00 | 0.10 | 0.10 | 71 | 1008.7 |
| 20260904004138 | 84 | 170 | 2.0 | 2.0 | 0.00 | 0.10 | 0.10 | 71 | 1008.7 |
| 20260904003634 | 84 | 165 | 1.0 | 2.0 | 0.00 | 0.10 | 0.10 | 71 | 1008.7 |
| 20260904003130 | 84 | 193 | 1.0 | 3.0 | 0.00 | 0.10 | 0.10 | 70 | 1008.8 |
| 20260904002625 | 84 | 177 | 2.0 | 5.0 | 0.00 | 0.10 | 0.10 | 70 | 1008.7 |
| 20260904002120 | 84 | 160 | 1.0 | 2.0 | 0.00 | 0.10 | 0.10 | 69 | 1008.8 |
| 20260904001615 | 85 | 185 | 1.0 | 2.0 | 0.00 | 0.10 | 0.10 | 69 | 1008.6 |
| 20260904001114 | 85 | 189 | 1.0 | 2.0 | 0.00 | 0.10 | 0.10 | 68 | 1008.7 |
| 20260904000609 | 85 | 191 | 1.0 | 2.0 | 0.00 | 0.10 | 0.10 | 68 | 1008.8 |
| 20260904000105 | 85 | 191 | 0.0 | 2.0 | 0.00 | 0.10 | 0.10 | 68 | 1008.8 |
| 20260903235604 | 85 | 196 | 1.0 | 3.0 | 0.00 | 0.10 | 0.10 | 67 | 1008.8 |
| 20260903235101 | 86 | 188 | 4.0 | 7.0 | 0.00 | 0.10 | 0.10 | 66 | 1008.7 |
| 20260903234555 | 86 | 177 | 2.0 | 5.0 | 0.00 | 0.10 | 0.10 | 66 | 1008.8 |
| 20260903234051 | 86 | 218 | 4.0 | 6.0 | 0.00 | 0.10 | 0.10 | 65 | 1008.9 |
| 20260903233547 | 86 | 223 | 3.0 | 6.0 | 0.00 | 0.10 | 0.10 | 65 | 1008.7 |
| 20260903233043 | 86 | 165 | 1.0 | 3.0 | 0.00 | 0.10 | 0.10 | 65 | 1008.6 |
| 20260903232538 | 86 | 151 | 2.0 | 9.0 | 0.00 | 0.10 | 0.10 | 64 | 1008.6 |
| 20260903232033 | 87 | 193 | 3.0 | 7.0 | 0.00 | 0.10 | 0.10 | 63 | 1008.6 |
| 20260903231527 | 87 | 223 | 3.0 | 5.0 | 0.00 | 0.10 | 0.10 | 64 | 1008.5 |
| 20260903231021 | 87 | 226 | 1.0 | 3.0 | 0.00 | 0.10 | 0.10 | 63 | 1008.2 |
| 20260903230518 | 87 | 209 | 5.0 | 7.0 | 0.00 | 0.10 | 0.10 | 63 | 1008.3 |
| 20260903230015 | 87 | 137 | 5.0 | 6.0 | 0.00 | 0.10 | 0.10 | 62 | 1008.1 |
| 20260903225509 | 87 | 239 | 2.0 | 7.0 | 0.00 | 0.10 | 0.10 | 62 | 1007.9 |
| 20260903225005 | 87 | 162 | 2.0 | 7.0 | 0.00 | 0.10 | 0.10 | 61 | 1007.9 |
| 20260903224500 | 88 | 203 | 2.0 | 7.0 | 0.00 | 0.10 | 0.10 | 60 | 1008.0 |
| 20260903223956 | 88 | 162 | 2.0 | 6.0 | 0.00 | 0.10 | 0.10 | 60 | 1008.0 |
| 20260903223455 | 88 | 165 | 1.0 | 7.0 | 0.00 | 0.10 | 0.10 | 59 | 1007.9 |
| 20260903222955 | 88 | 144 | 4.0 | 6.0 | 0.00 | 0.10 | 0.10 | 59 | 1008.0 |
| 20260903222455 | 88 | 147 | 6.0 | 10.0 | 0.00 | 0.10 | 0.10 | 59 | 1008.2 |
| 20260903221954 | 88 | 139 | 3.0 | 7.0 | 0.00 | 0.10 | 0.10 | 59 | 1008.1 |
| 20260903221449 | 88 | 164 | 4.0 | 10.0 | 0.00 | 0.10 | 0.10 | 59 | 1008.3 |
| 20260903220946 | 88 | 174 | 2.0 | 6.0 | 0.00 | 0.10 | 0.10 | 60 | 1008.2 |